This demonstration page uses our WeatherBlox Daily Observations layout. Learn more.

Left ArrowRight Arrow

Hourly Observations for September 24, 2021

Temp ( °F °C ) Dew Point ( °F °C ) Humidity (%) Winds ( mph kmh ) Pressure ( in mb ) Visibility ( mi km ) Precip ( " mm )
12:53 am 00:53 Clear 69 20.6 31 -0.6 24 24 SE 13 20 29.89 1012 10 16 0.00 0.00
1:53 am 01:53 Clear 67 19.4 32 0 27 27 SE 13 20 29.88 1012 10 16 0.00 0.00
2:53 am 02:53 Clear 67 19.4 33 0.6 28 28 ESE 10 17 29.88 1012 10 16 0.00 0.00
3:53 am 03:53 Clear 66 18.9 35 1.7 32 32 ESE 12 19 29.88 1012 10 16 0.00 0.00
4:53 am 04:53 Clear 65 18.3 36 2.2 34 34 SE 8 13 29.89 1012 10 16 0.00 0.00
5:53 am 05:53 Clear 65 18.3 36 2.2 34 34 ESE 10 17 29.89 1012 10 16 0.00 0.00
6:53 am 06:53 Clear 66 18.9 37 2.8 34 34 SE 9 15 29.91 1013 10 16 0.00 0.00
7:53 am 07:53 Sunny 65 18.3 37 2.8 36 36 SE 10 17 29.92 1013 10 16 0.00 0.00
8:53 am 08:53 Sunny 65 18.3 38 3.3 37 37 SE 12 19 29.94 1014 10 16 0.00 0.00
9:53 am 09:53 Sunny 67 19.4 40 4.4 37 37 SSE 14 22 29.95 1014 10 16 0.00 0.00
10:53 am 10:53 Sunny 72 22.2 42 5.6 34 34 SE 8 13 29.96 1015 10 16 0.00 0.00
11:53 am 11:53 Sunny 78 25.6 43 6.1 29 29 SE 10 17 29.96 1015 10 16 0.00 0.00
12:53 pm 12:53 Sunny 82 27.8 45 7.2 27 27 E 6 9 29.93 1014 10 16 0.00 0.00
1:53 pm 13:53 Sunny 83 28.3 46 7.8 27 27 Calm 29.92 1013 10 16 0.00 0.00
2:53 pm 14:53 Sunny 86 30 46 7.8 25 25 VRB 5 7 29.88 1012 10 16 0.00 0.00
3:53 pm 15:53 Sunny 87 30.6 46 7.8 24 24 Calm 29.87 1012 10 16 0.00 0.00
4:53 pm 16:53 Sunny 89 31.7 46 7.8 23 23 N 5 7 29.85 1011 10 16 0.00 0.00
5:53 pm 17:53 Sunny 89 31.7 46 7.8 23 23 SE 6 9 29.85 1011 10 16 0.00 0.00
6:53 pm 18:53 Mostly Sunny 88 31.1 46 7.8 23 23 SE 9 15 29.85 1011 10 16 0.00 0.00
7:53 pm 19:53 Partly Cloudy 86 30 46 7.8 25 25 ESE 9 15 29.86 1011 10 16 0.00 0.00
8:53 pm 20:53 Clear 82 27.8 47 8.3 29 29 SE 10 17 29.88 1012 10 16 0.00 0.00
9:53 pm 21:53 Clear 78 25.6 46 7.8 32 32 SE 10 17 29.91 1013 10 16 0.00 0.00
10:53 pm 22:53 Clear 76 24.4 47 8.3 36 36 SSE 10 17 29.92 1013 10 16 0.00 0.00
11:53 pm 23:53 Clear 73 22.8 46 7.8 38 38 SE 9 15 29.94 1014 10 16 0.00 0.00

Powered by AerisWeather